| time (UTC) | temp F | wind direction | speed MPH | gust MPH | rain 1hr in | rain 24hr in | rain mn in | humidity % | barometer mb |
| 20260506153032 | 46 | 355 | 2.0 | 9.0 | 0.00 | 0.00 | 0.00 | 47 | 1005.7 |
| 20260506151529 | 47 | 355 | 4.0 | 11.0 | 0.00 | 0.00 | 0.00 | 46 | 1005.6 |
| 20260506150027 | 46 | 355 | 3.0 | 12.0 | 0.00 | 0.00 | 0.00 | 46 | 1005.7 |
| 20260506144530 | 45 | 355 | 2.0 | 9.0 | 0.00 | 0.00 | 0.00 | 48 | 1005.5 |
| 20260506143031 | 45 | 355 | 2.0 | 11.0 | 0.00 | 0.00 | 0.00 | 49 | 1005.5 |
| 20260506141518 | 44 | 355 | 2.0 | 10.0 | 0.00 | 0.00 | 0.00 | 49 | 1005.5 |
| 20260506140016 | 43 | 355 | 3.0 | 12.0 | 0.00 | 0.00 | 0.00 | 49 | 1005.4 |
| 20260506134516 | 43 | 355 | 4.0 | 8.0 | 0.00 | 0.00 | 0.00 | 49 | 1005.4 |
| 20260506133015 | 42 | 355 | 2.0 | 5.0 | 0.00 | 0.00 | 0.00 | 51 | 1005.0 |
| 20260506131516 | 43 | 355 | 2.0 | 8.0 | 0.00 | 0.00 | 0.00 | 52 | 1005.1 |
| 20260506130013 | 41 | 355 | 1.0 | 9.0 | 0.00 | 0.00 | 0.00 | 54 | 1005.1 |
| 20260506124504 | 41 | 355 | 2.0 | 10.0 | 0.00 | 0.00 | 0.00 | 56 | 1005.1 |
| 20260506123002 | 40 | 355 | 2.0 | 8.0 | 0.00 | 0.00 | 0.00 | 58 | 1005.0 |
| 20260506121501 | 38 | 355 | 2.0 | 10.0 | 0.00 | 0.00 | 0.00 | 61 | 1004.9 |
| 20260506120120 | 37 | 355 | 1.0 | 9.0 | 0.00 | 0.00 | 0.00 | 64 | 1005.0 |
| 20260506114559 | 37 | 355 | 1.0 | 6.0 | 0.00 | 0.00 | 0.00 | 67 | 1005.0 |
| 20260506113103 | 35 | 355 | 2.0 | 9.0 | 0.00 | 0.00 | 0.00 | 69 | 1005.0 |
| 20260506111552 | 34 | 355 | 1.0 | 11.0 | 0.00 | 0.00 | 0.00 | 71 | 1004.9 |
| 20260506110047 | 33 | 355 | 1.0 | 9.0 | 0.00 | 0.00 | 0.00 | 74 | 1004.9 |
| 20260506104542 | 32 | 355 | 1.0 | 5.0 | 0.00 | 0.00 | 0.00 | 76 | 1004.7 |
| 20260506103038 | 31 | 355 | 1.0 | 4.0 | 0.00 | 0.00 | 0.00 | 76 | 1004.6 |
| 20260506101536 | 31 | 360 | 1.0 | 4.0 | 0.00 | 0.00 | 0.00 | 76 | 1004.5 |
| 20260506100034 | 31 | 306 | 1.0 | 3.0 | 0.00 | 0.00 | 0.00 | 75 | 1004.4 |
| 20260506094536 | 32 | 39 | 1.0 | 3.0 | 0.00 | 0.00 | 0.00 | 75 | 1004.4 |
| 20260506093042 | 32 | 197 | 1.0 | 3.0 | 0.00 | 0.00 | 0.00 | 74 | 1004.4 |
| 20260506091527 | 32 | 221 | 1.0 | 4.0 | 0.00 | 0.00 | 0.00 | 73 | 1004.2 |
| 20260506090025 | 33 | 222 | 1.0 | 4.0 | 0.00 | 0.00 | 0.00 | 72 | 1004.1 |
| 20260506084521 | 33 | 281 | 1.0 | 4.0 | 0.00 | 0.00 | 0.00 | 70 | 1004.0 |
| 20260506083018 | 34 | 182 | 2.0 | 5.0 | 0.00 | 0.00 | 0.00 | 69 | 1003.9 |
| 20260506081516 | 35 | 221 | 1.0 | 4.0 | 0.00 | 0.00 | 0.00 | 68 | 1003.8 |
| 20260506073009 | 37 | 301 | 2.0 | 5.0 | 0.00 | 0.00 | 0.00 | 66 | 1003.7 |
| 20260506071519 | 37 | 183 | 2.0 | 6.0 | 0.00 | 0.00 | 0.00 | 65 | 1003.6 |
| 20260506070115 | 37 | 190 | 2.0 | 7.0 | 0.00 | 0.00 | 0.00 | 65 | 1003.5 |
| 20260506061549 | 38 | 350 | 2.0 | 5.0 | 0.00 | 0.01 | 0.00 | 65 | 1003.2 |
| 20260506044550 | 40 | 350 | 1.0 | 3.0 | 0.00 | 0.11 | 0.00 | 59 | 1002.8 |
| 20260506043035 | 40 | 350 | 1.0 | 3.0 | 0.00 | 0.11 | 0.00 | 59 | 1002.6 |
| 20260506041540 | 40 | 219 | 1.0 | 7.0 | 0.00 | 0.11 | 0.00 | 60 | 1002.5 |
| 20260506040030 | 40 | 355 | 1.0 | 4.0 | 0.00 | 0.11 | 0.00 | 60 | 1002.4 |
| 20260506034529 | 40 | 355 | 0.0 | 8.0 | 0.00 | 0.17 | 0.11 | 60 | 1002.3 |
| 20260506033028 | 41 | 355 | 1.0 | 5.0 | 0.00 | 0.17 | 0.11 | 59 | 1002.3 |
| 20260506031526 | 41 | 355 | 0.0 | 6.0 | 0.00 | 0.17 | 0.11 | 59 | 1002.3 |
| 20260506030024 | 41 | 355 | 1.0 | 8.0 | 0.00 | 0.17 | 0.11 | 58 | 1002.3 |
| 20260506024531 | 41 | 200 | 1.0 | 10.0 | 0.00 | 0.22 | 0.11 | 58 | 1002.2 |
| 20260506023020 | 42 | 216 | 2.0 | 10.0 | 0.00 | 0.22 | 0.11 | 58 | 1002.1 |
| 20260506021518 | 42 | 263 | 1.0 | 4.0 | 0.00 | 0.22 | 0.11 | 58 | 1002.0 |
| 20260506020015 | 42 | 240 | 0.0 | 3.0 | 0.00 | 0.22 | 0.11 | 58 | 1001.7 |
| 20260506014514 | 42 | 244 | 0.0 | 2.0 | 0.00 | 0.25 | 0.11 | 57 | 1001.5 |
| 20260506013013 | 43 | 269 | 1.0 | 6.0 | 0.00 | 0.25 | 0.11 | 57 | 1001.4 |
| 20260506011511 | 43 | 242 | 1.0 | 4.0 | 0.00 | 0.25 | 0.11 | 55 | 1001.3 |
| 20260506010010 | 43 | 280 | 0.0 | 1.0 | 0.00 | 0.25 | 0.11 | 56 | 1001.0 |
| 20260506004507 | 44 | 259 | 0.0 | 4.0 | 0.00 | 0.25 | 0.11 | 54 | 1000.7 |
| 20260506003005 | 44 | 264 | 0.0 | 7.0 | 0.00 | 0.25 | 0.11 | 54 | 1000.4 |
| 20260506001503 | 44 | 198 | 0.0 | 2.0 | 0.00 | 0.25 | 0.11 | 53 | 1000.2 |
| 20260506000002 | 44 | 194 | 1.0 | 7.0 | 0.00 | 0.25 | 0.11 | 52 | 1000.1 |
| 20260505234618 | 45 | 266 | 1.0 | 8.0 | 0.00 | 0.25 | 0.11 | 50 | 1000.0 |
| 20260505233059 | 45 | 251 | 2.0 | 12.0 | 0.00 | 0.25 | 0.11 | 49 | 1000.0 |
| 20260505231600 | 46 | 205 | 2.0 | 14.0 | 0.00 | 0.25 | 0.11 | 47 | 999.9 |
| 20260505230057 | 46 | 199 | 2.0 | 9.0 | 0.00 | 0.25 | 0.11 | 46 | 999.6 |
| 20260505224556 | 47 | 252 | 1.0 | 9.0 | 0.00 | 0.25 | 0.11 | 46 | 999.5 |
| 20260505223102 | 47 | 213 | 1.0 | 6.0 | 0.00 | 0.25 | 0.11 | 46 | 999.3 |
| 20260505221606 | 47 | 242 | 2.0 | 9.0 | 0.00 | 0.25 | 0.11 | 45 | 999.2 |
| 20260505220119 | 47 | 243 | 2.0 | 21.0 | 0.00 | 0.25 | 0.11 | 45 | 999.1 |
| 20260505214608 | 47 | 355 | 3.0 | 11.0 | 0.00 | 0.25 | 0.11 | 46 | 998.8 |
| 20260505213048 | 48 | 355 | 4.0 | 13.0 | 0.00 | 0.25 | 0.11 | 44 | 998.5 |
| 20260505211549 | 48 | 355 | 2.0 | 13.0 | 0.00 | 0.25 | 0.11 | 45 | 998.3 |
| 20260505210044 | 49 | 355 | 4.0 | 14.0 | 0.00 | 0.25 | 0.11 | 44 | 998.0 |
| 20260505204540 | 49 | 355 | 3.0 | 11.0 | 0.00 | 0.25 | 0.11 | 44 | 997.7 |
| 20260505203039 | 49 | 355 | 4.0 | 11.0 | 0.00 | 0.25 | 0.11 | 45 | 997.4 |
| 20260505201538 | 50 | 355 | 3.0 | 12.0 | 0.00 | 0.25 | 0.11 | 44 | 997.3 |
| 20260505200042 | 50 | 355 | 2.0 | 10.0 | 0.00 | 0.25 | 0.11 | 45 | 997.0 |
| 20260505194538 | 50 | 355 | 4.0 | 16.0 | 0.00 | 0.25 | 0.11 | 45 | 997.0 |
| 20260505193033 | 51 | 355 | 1.0 | 12.0 | 0.00 | 0.25 | 0.11 | 46 | 996.7 |
| 20260505191532 | 51 | 355 | 3.0 | 20.0 | 0.00 | 0.25 | 0.11 | 46 | 996.4 |
| 20260505190039 | 51 | 355 | 3.0 | 14.0 | 0.00 | 0.25 | 0.11 | 47 | 996.1 |
| 20260505184530 | 51 | 355 | 2.0 | 10.0 | 0.00 | 0.25 | 0.11 | 49 | 996.0 |
| 20260505183041 | 51 | 355 | 4.0 | 13.0 | 0.00 | 0.25 | 0.11 | 46 | 995.8 |
| 20260505181526 | 52 | 355 | 2.0 | 12.0 | 0.00 | 0.25 | 0.11 | 52 | 995.5 |
| 20260505180023 | 51 | 355 | 3.0 | 11.0 | 0.00 | 0.25 | 0.11 | 52 | 995.3 |
| 20260505174522 | 51 | 355 | 4.0 | 14.0 | 0.00 | 0.25 | 0.11 | 51 | 995.2 |
| 20260505173022 | 51 | 355 | 2.0 | 11.0 | 0.00 | 0.25 | 0.11 | 53 | 994.7 |
| 20260505171517 | 52 | 355 | 3.0 | 13.0 | 0.00 | 0.25 | 0.11 | 48 | 994.3 |
| 20260505170015 | 52 | 355 | 2.0 | 14.0 | 0.00 | 0.25 | 0.11 | 56 | 994.1 |
| 20260505164514 | 51 | 355 | 2.0 | 8.0 | 0.00 | 0.25 | 0.11 | 54 | 993.9 |
| 20260505163014 | 53 | 355 | 5.0 | 13.0 | 0.00 | 0.25 | 0.11 | 53 | 994.0 |
| 20260505161510 | 53 | 355 | 4.0 | 11.0 | 0.00 | 0.25 | 0.11 | 54 | 993.8 |